ELEKTRO-L 2 (41105 NORAD) Tracking and Keplerian Element Data

This shows tracking and keplerian element data for the satellite.

Feedback or suggestion? Click here.




ElementValue
Catalog41105
NameELEKTRO-L 2
Epoch Orbit2114
Epoch Day261.93700559
Epoch Year2021
RAAN91.3637
Inclination2.3062
Eccentricity0.0002834
Argument of Perigee78.1543
Mean Anonmoly151.412
Mean Motion1.00271039
Decay Rate-1.38E-06
L11 41105U 15074A 21261.93700559 -.00000138 00000-0 00000-0 0 9991
L22 41105 2.3062 91.3637 0002834 78.1543 151.4120 1.00271039 21145

Live tracking and technical data element details for ELEKTRO-L 2 (NORAD 41105). ELEKTRO-L 2 can be tracked NOW for your location showing map with azimuth and elevation plus other details from your city location.

Track the satellite on the map from your city or location and see movement details for azimuth, elevation, latitude, longitude, range, height, and movement on the map or in text.







IsCatalogInMostPopularTable: catalog: 41105, numindb: 556
Update: records affected: 1



GetName: 41105 ELEKTRO-L 2

Hit Count: updated at: Sun, 26 Sep 2021 01:17:42 GMT